SCP
0 0 0 0 0 0 0 0 0 0 0 0 0 0 0 0 0 0 0 0 0 0 0 0 0 0 0 0 0 0 0 0 0 0 0 0 0 0 0 0 0 0 0
0 0 0 0 0 0 0 0 0 0 0 0 0 0 0 0 0 0 0 0 0 0 0 0 0 0 0 0 0 0 0 0 0 0 0 0 0 0 0 0 0 0 0
0 0 0 0 0 0 0 0 0 0 0 0 0 0 0 0 0 0 0 0 0 0 0 0 0 0 0 0 0 0 0 0 0 0 0 0 0 0 0 0 0 0 0
0 0 0 0 0 0 0 0 0 0 0 0 0 0 0 0 0 0 0 0 0 0 0 0 0 0 0 0 0 0 0 0 0 0 0 0 0 0 0 0 0 0 0
0 0 0 0 0 0 0 0 0 0 0 0 0 0 0 0 0 0 0 0 0 0 0 0 0 0 0 0 0 0 0 0 0 0 0 0 0 0 0 0 0 0 0
0 0 0 0 0 0 0 0 0 0 0 0 0 0 0 0 0 0 0 0 0 0 0 0 0 0 0 0 0 0 0 0 0 0 0 0 0 0 0 0 0 0 0
0 0 0 0 0 0 0 0 0 0 0 0 0 0 0 0 0 0 0 0 0 0 0 0 0 0 0 0 0 0 0 0 0 0 0 0 0 0 0 0 0 0 0
0 0 0 0 0 0 0 0 0 0 0 0 0 0 0 0 0 0 0 0 0 0 0 0 0 0 0 0 0 0 0 0 0 0 0 0 0 0 0 0 0 0 0
0 0 0 0 0 0 0 0 0 0 0 0 0 0 0 0 0 0 0 0 0 0 0 0 0 0 0 0 0 0 0 0 0 0 0 0 0 0 0 0 0 0 0
0 0 0 0 0 0 0 0 0 0 0 0 0 0 0 0 0 0 0 0 0 0 0 0 0 0 0 0 0 0 0 0 0 0 0 0 0 0 0 0 0 0 0
0 0 0 0 0 0 0 0 0 0 0 0 0 0 0 0 0 0 0 0 0 0 0 0 0 0 0 0 0 0 0 0 0 0 0 0 0 0 0 0 0 0 0
0 0 0 0 0 0 0 0 0 0 0 0 0 0 0 0 0 0 0 0 0 0 0 0 0 0 0 0 0 0 0 0 0 0 0 0 0 0 0 0 0 0 0
0 0 0 0 0 0 0 0 0 0 0 0 0 0 0 0 0 0 0 0 0 0 0 0 0 0 0 0 0 0 0 0 0 0 0 0 0 0 0 0 0 0 0
0 0 0 0 0 0 0 0 0 0 0 0 0 0 0 0 0 0 0 0 0 0 0 0 0 0 0 0 0 0 0 0 0 0 0 0 0 0 0 0 0 0 0
0 0 0 0 0 0 0 0 0 0 0 0 0 0 0 0 0 0 0 0 0 0 0 0 0 0 0 0 0 0 0 0 0 0 0 0 0 0 0 0 0 0 0
0 0 0 0 0 0 0 0 0 0 0 0 0 0 0 0 0 0 0 0 0 0 0 0 0 0 0 0 0 0 0 0 0 0 0 0 0 0 0 0 0 0 0
0 0 0 0 0 0 0 0 0 0 0 0 0 0 0 0 0 0 0 0 0 0 0 0 0 0 0 0 0 0 0 0 0 0 0 0 0 0 0 0 0 0 0
0 0 0 0 0 0 0 0 0 0 0 0 0 0 0 0 0 0 0 0 0 0 0 0 0 0 0 0 0 0 0 0 0 0 0 0 0 0 0 0 0 0 0
0 0 0 0 0 0 0 0 0 0 0 0 0 0 0 0 0 0 0 0 0 0 0 0 0 0 0 0 0 0 0 0 0 0 0 0 0 0 0 0 0 0 0
0 0 0 0 0 0 0 0 0 0 0 0 0 0 0 0 0 0 0 0 0 0 0 0 0 0 0 0 0 0 0 0 0 0 0 0 0 0 0 0 0 0 0
0 0 0 0 0 0 0 0 0 0 0 0 0 0 0 0 0 0 0 0 0 0 0 0 0 0 0 0 0 0 0 0 0 0 0 0 0 0 0 0 0 0 0
0 0 0 0 0 0 0 0 0 0 0 0 0 0 0 0 0 0 0 0 0 0 0 0 0 0 0 0 0 0 0 0 0 0 0 0 0 0 0 0 0 0 0
0 0 0 0 0 0 0 0 0 0 0 0 0 0 0 0 0 0 0 0 0 0 0 0 0 0 0 0 0 0 0 0 0 0 0 0 0 0 0 0 0 0 0
0 0 0 0 0 0 0 0 0 0 0 0 0 0 0 0 0 0 0 0 0 0 0 0 0 0 0 0 0 0 0 0 0 0 0 0 0 0 0 0 0 0 0
0 0 0 0 0 0 0 0 0 0 0 0 0 0 0 0 0 0 0 0 0 0 0 0 0 0 0 0 0 0 0 0 0 0 0 0 0 0 0 0 0 0 0
0 0 0 0 0 0 0 0 0 0 0 0 0 0 0 0 0 0 0 0 0 0 0 0 0 0 0 0 0 0 0 0 0 0 0 0 0 0 0 0 0 0 0
Wind_Speed_500mb
55 54 50 51 54 40 29 9 29 36 23 21 15 12 14 15 16 18 19 20 19 19 20 21 22 24 26 30 32 35 38 42 48 57 56 59 61 62 62 63 66 67 70
54 47 43 51 46 24 27 33 30 19 21 17 17 19 20 19 19 21 24 24 22 21 22 23 24 26 28 32 33 35 37 43 52 60 63 62 61 63 65 69 70 71 74
48 45 49 39 28 23 27 27 23 21 19 20 23 24 24 24 25 26 27 28 27 26 26 27 27 29 31 33 35 37 38 42 48 58 65 63 63 66 69 73 76 78 75
51 45 36 28 21 25 26 25 22 20 23 26 27 28 29 30 31 32 32 31 32 30 32 32 32 33 34 36 37 38 42 46 50 55 61 62 64 66 72 80 84 81 82
45 40 33 25 27 27 27 23 22 26 29 30 31 34 35 36 36 37 36 38 38 39 38 37 37 37 39 38 38 41 45 47 52 55 58 61 64 69 74 78 84 90 89
39 36 33 31 27 26 27 26 28 30 31 36 38 39 40 40 41 42 43 45 46 46 44 43 42 42 41 40 40 43 45 48 52 52 53 56 60 65 71 75 81 88 101
34 33 34 33 30 29 32 33 32 33 38 42 42 44 43 43 46 47 49 52 51 50 51 49 49 46 44 41 41 43 43 46 51 50 48 50 59 63 68 72 74 77 81
36 36 35 33 32 36 39 37 37 40 43 45 47 47 46 46 50 53 55 57 58 56 55 54 54 51 47 45 44 45 43 45 46 49 50 51 54 58 61 67 72 78 82
30 32 33 36 39 43 44 40 42 45 46 49 48 49 51 49 54 56 59 63 62 61 59 59 57 55 51 49 49 48 44 45 46 48 49 51 54 55 58 66 67 76 89
33 35 38 43 46 48 45 44 45 49 51 51 52 52 54 55 56 61 63 67 68 67 65 64 61 59 53 53 52 50 47 46 49 46 47 50 54 56 56 58 61 67 69
35 38 41 45 47 45 45 47 48 51 53 55 57 55 57 61 61 65 67 72 72 71 69 69 64 60 58 56 51 51 47 52 49 49 52 55 56 57 54 52 53 55 60
32 36 39 40 40 42 46 48 50 53 57 58 61 63 62 65 65 66 68 69 72 75 72 69 64 61 57 55 52 55 49 55 49 52 56 56 57 56 52 51 52 52 48
25 28 31 35 39 42 46 47 51 53 60 63 67 73 71 67 67 68 68 67 68 74 77 68 63 62 59 55 48 53 55 52 51 54 57 56 57 56 55 56 52 54 49
22 26 30 34 38 42 46 50 54 58 64 69 74 80 79 77 74 71 69 68 69 72 71 74 67 63 60 63 60 56 56 52 53 55 56 55 56 54 54 56 59 58 60
30 32 36 40 44 48 53 57 62 65 69 74 78 81 82 85 77 75 73 71 69 66 67 72 74 74 69 67 61 57 55 54 53 54 55 56 55 55 53 53 53 54 53
30 34 38 43 45 50 55 58 59 66 68 72 75 79 82 82 78 72 70 72 70 64 71 78 81 80 75 69 62 58 55 53 51 52 53 55 53 54 54 50 49 48 50
43 44 46 49 52 54 56 60 66 57 65 66 67 69 72 77 76 77 71 64 59 50 65 76 75 78 75 68 62 56 52 49 50 49 51 51 52 52 51 48 47 45 44
42 42 41 42 44 46 50 53 58 63 66 63 61 66 69 68 66 66 63 61 62 58 72 82 73 67 56 56 54 51 48 47 47 48 49 49 50 51 48 44 41 41 40
32 33 36 39 43 48 53 57 62 66 71 76 74 68 63 65 67 66 58 67 79 77 74 82 81 70 62 60 58 52 46 45 44 47 47 46 46 46 42 38 35 33 34
35 40 45 50 54 58 62 67 71 75 79 82 83 81 75 72 72 68 64 66 78 85 88 77 77 80 72 63 58 50 46 44 43 43 41 40 39 37 34 29 28 25 27
47 51 56 60 65 68 71 74 78 82 86 89 89 84 77 77 81 73 66 65 68 80 89 85 79 77 72 63 56 46 47 42 35 36 33 32 30 27 26 22 20 21 23
61 65 69 73 77 80 82 85 87 88 88 90 91 87 79 74 74 77 74 66 65 62 65 70 73 73 63 54 48 50 43 31 32 28 27 24 20 18 18 17 17 18 17
72 75 78 81 84 88 90 89 89 88 89 88 87 86 81 75 68 67 69 63 58 58 56 58 62 59 57 53 49 42 31 26 24 23 18 14 11 12 13 14 14 13 13
77 81 84 85 86 86 86 87 87 86 85 84 82 80 78 73 70 65 62 59 54 52 52 51 56 57 52 45 39 30 24 22 21 19 14 9 5 6 9 11 11 11 12
78 79 80 82 83 84 85 84 84 82 81 79 78 73 70 68 64 59 55 50 47 45 47 44 44 42 39 37 28 25 22 20 19 19 16 9 4 7 9 9 9 10 11
77 78 79 80 81 80 80 80 79 77 76 73 70 67 64 61 57 52 47 44 41 40 43 40 38 39 36 29 28 25 21 20 22 21 15 8 6 8 8 7 8 8 7
Wind_Direction_500mb
198 189 181 173 156 154 167 183 254 260 260 248 248 259 271 285 297 299 305 312 311 311 311 309 311 315 318 319 322 323 323 324 322 324 330 331 331 332 332 334 337 341 342
188 178 165 152 142 160 237 256 249 235 244 246 256 257 262 275 284 292 296 299 297 295 293 296 302 305 310 313 317 317 320 322 323 325 330 329 327 327 330 333 338 344 342
160 152 147 154 189 220 237 235 231 239 246 252 256 258 265 275 281 287 289 287 283 285 286 290 293 297 303 306 310 312 317 320 321 323 324 324 326 328 330 335 339 340 341
151 158 171 181 221 229 239 230 239 255 256 257 260 263 269 276 281 283 278 278 278 281 282 286 289 294 297 302 308 311 317 320 321 320 318 322 326 330 333 336 335 336 338
165 171 184 229 235 229 226 245 257 256 256 260 264 268 272 276 280 279 278 279 279 278 279 282 286 289 292 296 305 312 316 316 316 318 320 324 327 329 333 335 332 332 336
180 195 227 244 237 226 247 255 257 260 264 266 268 271 273 277 280 281 281 277 276 276 278 280 282 284 287 294 302 308 308 311 314 317 320 321 324 327 330 331 330 333 334
212 240 245 240 227 246 257 259 264 268 268 269 272 273 275 279 282 284 281 278 274 276 276 278 278 280 282 289 292 297 300 306 310 314 317 320 322 325 326 325 328 327 326
250 248 237 230 245 257 264 267 270 271 272 273 274 276 279 283 282 282 281 280 278 277 275 276 276 278 279 280 284 288 294 299 304 309 316 318 321 324 322 320 322 320 320
246 235 237 250 262 270 272 273 273 274 277 278 278 278 281 282 282 284 284 282 279 277 276 274 274 275 276 276 280 282 289 297 300 305 311 315 317 317 316 316 319 325 325
259 255 260 265 271 277 277 274 275 278 278 278 278 279 281 284 285 286 284 280 279 279 277 274 274 275 271 274 274 279 285 291 296 303 306 309 313 314 314 316 320 323 326
265 261 264 273 279 277 274 275 279 279 279 277 278 281 284 286 286 285 282 280 282 280 277 276 275 273 270 271 271 275 283 286 295 301 306 308 310 310 310 313 314 319 323
264 267 272 274 274 275 275 276 277 278 280 281 283 283 285 287 287 285 284 282 283 279 278 277 276 269 264 263 262 270 275 286 292 297 301 305 309 308 310 313 316 318 322
278 275 273 272 274 277 279 281 282 283 283 284 285 287 287 288 287 285 283 282 279 274 279 279 273 264 258 255 251 267 272 281 286 293 298 304 307 309 313 314 315 314 318
289 289 290 290 289 287 285 283 282 281 284 287 288 288 290 289 288 288 287 283 279 275 269 270 269 265 257 254 255 261 272 276 283 289 297 303 305 308 310 313 316 318 321
296 296 293 289 285 283 283 284 285 286 287 289 289 291 291 291 293 289 286 282 280 276 268 261 256 254 255 255 255 262 268 272 280 288 297 300 302 304 308 312 313 316 321
301 297 292 289 288 289 289 289 289 292 292 293 293 293 293 292 291 289 285 283 281 274 258 254 253 255 255 256 258 263 265 270 278 287 293 295 298 302 308 312 312 315 319
302 300 300 300 300 300 301 301 301 300 300 300 299 299 297 296 294 293 289 285 280 255 251 259 255 255 256 258 257 259 262 269 279 287 292 294 298 302 306 310 311 313 318
308 311 313 314 314 314 313 310 308 308 308 307 305 303 300 297 290 283 272 273 265 255 248 253 259 260 258 255 255 261 262 269 278 288 292 294 297 301 304 308 308 311 318
318 318 318 318 318 317 316 315 313 311 311 310 311 308 306 297 291 284 270 258 263 263 254 252 258 259 256 258 258 264 264 269 279 285 288 292 295 298 304 305 306 310 318
320 320 319 318 317 317 317 316 314 312 310 308 308 309 307 300 294 289 279 265 256 261 261 261 257 254 255 257 257 261 263 267 277 281 286 290 292 297 301 302 301 307 314
318 316 315 314 313 312 310 309 308 308 306 305 304 304 303 301 298 293 285 275 266 260 260 263 259 253 251 257 255 256 257 267 275 277 282 284 290 295 296 298 301 310 315
318 318 316 314 312 311 310 310 309 307 305 304 304 304 303 298 294 291 289 282 278 272 266 261 254 248 250 252 248 248 256 261 265 269 271 277 285 290 296 303 305 309 310
315 314 313 312 311 310 308 308 308 308 308 307 306 305 304 302 297 291 288 284 275 269 264 255 248 245 248 246 243 247 251 251 250 257 257 260 269 289 305 304 305 309 299
318 318 317 316 316 315 315 315 315 314 313 312 311 309 306 304 300 295 288 283 275 264 258 254 246 244 241 238 240 243 236 231 238 234 220 211 241 307 325 322 317 313 302
323 323 324 323 323 322 320 319 317 316 315 314 312 310 307 303 298 293 288 280 272 261 252 248 239 236 238 237 233 222 213 218 216 200 185 184 244 311 336 338 317 311 307
328 327 327 326 325 325 324 323 322 322 321 319 317 314 311 306 301 295 286 275 265 254 245 242 236 234 233 224 214 200 200 201 191 186 184 196 256 296 321 335 338 337 329
Wind_Speed_850mb
55 54 50 51 54 40 29 9 29 36 23 21 15 12 14 15 16 18 19 20 19 19 20 21 22 24 26 30 32 35 38 42 48 57 56 59 61 62 62 63 66 67 70
54 47 43 51 46 24 27 33 30 19 21 17 17 19 20 19 19 21 24 24 22 21 22 23 24 26 28 32 33 35 37 43 52 60 63 62 61 63 65 69 70 71 74
48 45 49 39 28 23 27 27 23 21 19 20 23 24 24 24 25 26 27 28 27 26 26 27 27 29 31 33 35 37 38 42 48 58 65 63 63 66 69 73 76 78 75
51 45 36 28 21 25 26 25 22 20 23 26 27 28 29 30 31 32 32 31 32 30 32 32 32 33 34 36 37 38 42 46 50 55 61 62 64 66 72 80 84 81 82
45 40 33 25 27 27 27 23 22 26 29 30 31 34 35 36 36 37 36 38 38 39 38 37 37 37 39 38 38 41 45 47 52 55 58 61 64 69 74 78 84 90 89
39 36 33 31 27 26 27 26 28 30 31 36 38 39 40 40 41 42 43 45 46 46 44 43 42 42 41 40 40 43 45 48 52 52 53 56 60 65 71 75 81 88 101
34 33 34 33 30 29 32 33 32 33 38 42 42 44 43 43 46 47 49 52 51 50 51 49 49 46 44 41 41 43 43 46 51 50 48 50 59 63 68 72 74 77 81
36 36 35 33 32 36 39 37 37 40 43 45 47 47 46 46 50 53 55 57 58 56 55 54 54 51 47 45 44 45 43 45 46 49 50 51 54 58 61 67 72 78 82
30 32 33 36 39 43 44 40 42 45 46 49 48 49 51 49 54 56 59 63 62 61 59 59 57 55 51 49 49 48 44 45 46 48 49 51 54 55 58 66 67 76 89
33 35 38 43 46 48 45 44 45 49 51 51 52 52 54 55 56 61 63 67 68 67 65 64 61 59 53 53 52 50 47 46 49 46 47 50 54 56 56 58 61 67 69
35 38 41 45 47 45 45 47 48 51 53 55 57 55 57 61 61 65 67 72 72 71 69 69 64 60 58 56 51 51 47 52 49 49 52 55 56 57 54 52 53 55 60
32 36 39 40 40 42 46 48 50 53 57 58 61 63 62 65 65 66 68 69 72 75 72 69 64 61 57 55 52 55 49 55 49 52 56 56 57 56 52 51 52 52 48
25 28 31 35 39 42 46 47 51 53 60 63 67 73 71 67 67 68 68 67 68 74 77 68 63 62 59 55 48 53 55 52 51 54 57 56 57 56 55 56 52 54 49
22 26 30 34 38 42 46 50 54 58 64 69 74 80 79 77 74 71 69 68 69 72 71 74 67 63 60 63 60 56 56 52 53 55 56 55 56 54 54 56 59 58 60
30 32 36 40 44 48 53 57 62 65 69 74 78 81 82 85 77 75 73 71 69 66 67 72 74 74 69 67 61 57 55 54 53 54 55 56 55 55 53 53 53 54 53
30 34 38 43 45 50 55 58 59 66 68 72 75 79 82 82 78 72 70 72 70 64 71 78 81 80 75 69 62 58 55 53 51 52 53 55 53 54 54 50 49 48 50
43 44 46 49 52 54 56 60 66 57 65 66 67 69 72 77 76 77 71 64 59 50 65 76 75 78 75 68 62 56 52 49 50 49 51 51 52 52 51 48 47 45 44
42 42 41 42 44 46 50 53 58 63 66 63 61 66 69 68 66 66 63 61 62 58 72 82 73 67 56 56 54 51 48 47 47 48 49 49 50 51 48 44 41 41 40
32 33 36 39 43 48 53 57 62 66 71 76 74 68 63 65 67 66 58 67 79 77 74 82 81 70 62 60 58 52 46 45 44 47 47 46 46 46 42 38 35 33 34
35 40 45 50 54 58 62 67 71 75 79 82 83 81 75 72 72 68 64 66 78 85 88 77 77 80 72 63 58 50 46 44 43 43 41 40 39 37 34 29 28 25 27
47 51 56 60 65 68 71 74 78 82 86 89 89 84 77 77 81 73 66 65 68 80 89 85 79 77 72 63 56 46 47 42 35 36 33 32 30 27 26 22 20 21 23
61 65 69 73 77 80 82 85 87 88 88 90 91 87 79 74 74 77 74 66 65 62 65 70 73 73 63 54 48 50 43 31 32 28 27 24 20 18 18 17 17 18 17
72 75 78 81 84 88 90 89 89 88 89 88 87 86 81 75 68 67 69 63 58 58 56 58 62 59 57 53 49 42 31 26 24 23 18 14 11 12 13 14 14 13 13
77 81 84 85 86 86 86 87 87 86 85 84 82 80 78 73 70 65 62 59 54 52 52 51 56 57 52 45 39 30 24 22 21 19 14 9 5 6 9 11 11 11 12
78 79 80 82 83 84 85 84 84 82 81 79 78 73 70 68 64 59 55 50 47 45 47 44 44 42 39 37 28 25 22 20 19 19 16 9 4 7 9 9 9 10 11
77 78 79 80 81 80 80 80 79 77 76 73 70 67 64 61 57 52 47 44 41 40 43 40 38 39 36 29 28 25 21 20 22 21 15 8 6 8 8 7 8 8 7
Wind_Direction_850mb
198 189 181 173 156 154 167 183 254 260 260 248 248 259 271 285 297 299 305 312 311 311 311 309 311 315 318 319 322 323 323 324 322 324 330 331 331 332 332 334 337 341 342
188 178 165 152 142 160 237 256 249 235 244 246 256 257 262 275 284 292 296 299 297 295 293 296 302 305 310 313 317 317 320 322 323 325 330 329 327 327 330 333 338 344 342
160 152 147 154 189 220 237 235 231 239 246 252 256 258 265 275 281 287 289 287 283 285 286 290 293 297 303 306 310 312 317 320 321 323 324 324 326 328 330 335 339 340 341
151 158 171 181 221 229 239 230 239 255 256 257 260 263 269 276 281 283 278 278 278 281 282 286 289 294 297 302 308 311 317 320 321 320 318 322 326 330 333 336 335 336 338
165 171 184 229 235 229 226 245 257 256 256 260 264 268 272 276 280 279 278 279 279 278 279 282 286 289 292 296 305 312 316 316 316 318 320 324 327 329 333 335 332 332 336
180 195 227 244 237 226 247 255 257 260 264 266 268 271 273 277 280 281 281 277 276 276 278 280 282 284 287 294 302 308 308 311 314 317 320 321 324 327 330 331 330 333 334
212 240 245 240 227 246 257 259 264 268 268 269 272 273 275 279 282 284 281 278 274 276 276 278 278 280 282 289 292 297 300 306 310 314 317 320 322 325 326 325 328 327 326
250 248 237 230 245 257 264 267 270 271 272 273 274 276 279 283 282 282 281 280 278 277 275 276 276 278 279 280 284 288 294 299 304 309 316 318 321 324 322 320 322 320 320
246 235 237 250 262 270 272 273 273 274 277 278 278 278 281 282 282 284 284 282 279 277 276 274 274 275 276 276 280 282 289 297 300 305 311 315 317 317 316 316 319 325 325
259 255 260 265 271 277 277 274 275 278 278 278 278 279 281 284 285 286 284 280 279 279 277 274 274 275 271 274 274 279 285 291 296 303 306 309 313 314 314 316 320 323 326
265 261 264 273 279 277 274 275 279 279 279 277 278 281 284 286 286 285 282 280 282 280 277 276 275 273 270 271 271 275 283 286 295 301 306 308 310 310 310 313 314 319 323
264 267 272 274 274 275 275 276 277 278 280 281 283 283 285 287 287 285 284 282 283 279 278 277 276 269 264 263 262 270 275 286 292 297 301 305 309 308 310 313 316 318 322
278 275 273 272 274 277 279 281 282 283 283 284 285 287 287 288 287 285 283 282 279 274 279 279 273 264 258 255 251 267 272 281 286 293 298 304 307 309 313 314 315 314 318
289 289 290 290 289 287 285 283 282 281 284 287 288 288 290 289 288 288 287 283 279 275 269 270 269 265 257 254 255 261 272 276 283 289 297 303 305 308 310 313 316 318 321
296 296 293 289 285 283 283 284 285 286 287 289 289 291 291 291 293 289 286 282 280 276 268 261 256 254 255 255 255 262 268 272 280 288 297 300 302 304 308 312 313 316 321
301 297 292 289 288 289 289 289 289 292 292 293 293 293 293 292 291 289 285 283 281 274 258 254 253 255 255 256 258 263 265 270 278 287 293 295 298 302 308 312 312 315 319
302 300 300 300 300 300 301 301 301 300 300 300 299 299 297 296 294 293 289 285 280 255 251 259 255 255 256 258 257 259 262 269 279 287 292 294 298 302 306 310 311 313 318
308 311 313 314 314 314 313 310 308 308 308 307 305 303 300 297 290 283 272 273 265 255 248 253 259 260 258 255 255 261 262 269 278 288 292 294 297 301 304 308 308 311 318
318 318 318 318 318 317 316 315 313 311 311 310 311 308 306 297 291 284 270 258 263 263 254 252 258 259 256 258 258 264 264 269 279 285 288 292 295 298 304 305 306 310 318
320 320 319 318 317 317 317 316 314 312 310 308 308 309 307 300 294 289 279 265 256 261 261 261 257 254 255 257 257 261 263 267 277 281 286 290 292 297 301 302 301 307 314
318 316 315 314 313 312 310 309 308 308 306 305 304 304 303 301 298 293 285 275 266 260 260 263 259 253 251 257 255 256 257 267 275 277 282 284 290 295 296 298 301 310 315
318 318 316 314 312 311 310 310 309 307 305 304 304 304 303 298 294 291 289 282 278 272 266 261 254 248 250 252 248 248 256 261 265 269 271 277 285 290 296 303 305 309 310
315 314 313 312 311 310 308 308 308 308 308 307 306 305 304 302 297 291 288 284 275 269 264 255 248 245 248 246 243 247 251 251 250 257 257 260 269 289 305 304 305 309 299
318 318 317 316 316 315 315 315 315 314 313 312 311 309 306 304 300 295 288 283 275 264 258 254 246 244 241 238 240 243 236 231 238 234 220 211 241 307 325 322 317 313 302
323 323 324 323 323 322 320 319 317 316 315 314 312 310 307 303 298 293 288 280 272 261 252 248 239 236 238 237 233 222 213 218 216 200 185 184 244 311 336 338 317 311 307
328 327 327 326 325 325 324 323 322 322 321 319 317 314 311 306 301 295 286 275 265 254 245 242 236 234 233 224 214 200 200 201 191 186 184 196 256 296 321 335 338 337 329